GW3802 Weather Reports


time (UTC)temp
C
wind
direction
speed
KPH
gust
KPH
rain 1hr
cm
rain 24hr
cm
rain mn
cm
humidity
%
barometer
mb
20260509024625 10 277 0.0 1.6 0.00 0.00 0.00 81 1006.1
20260509024121 10 135 1.6 3.2 0.00 0.00 0.00 81 1006.4
20260509023619 10 224 0.0 0.0 0.00 0.00 0.00 80 1006.4
20260509023116 10 222 0.0 3.2 0.00 0.00 0.00 80 1006.4
20260509022612 10 168 3.2 4.8 0.00 0.00 0.00 80 1006.4
20260509022110 10 144 3.2 4.8 0.00 0.00 0.00 80 1006.4
20260509021607 10 184 1.6 4.8 0.00 0.00 0.00 79 1006.4
20260509021104 10 113 1.6 4.8 0.00 0.00 0.00 79 1006.4
20260509020602 10 286 1.6 6.4 0.00 0.00 0.00 79 1006.4
20260509020058 10 193 0.0 3.2 0.00 0.00 0.00 78 1006.4
20260509015552 11 155 1.6 3.2 0.00 0.00 0.00 77 1006.4
20260509015049 11 220 3.2 4.8 0.00 0.00 0.00 76 1006.4
20260509014546 11 86 3.2 4.8 0.00 0.00 0.00 76 1006.4
20260509014042 11 125 1.6 6.4 0.00 0.00 0.00 76 1006.4
20260509013539 11 137 3.2 4.8 0.00 0.00 0.00 74 1006.1
20260509013034 11 170 6.4 11.3 0.00 0.00 0.00 74 1006.1
20260509012531 11 231 3.2 4.8 0.00 0.00 0.00 74 1006.4
20260509012028 11 213 1.6 6.4 0.00 0.00 0.00 74 1006.1
20260509011526 11 254 0.0 3.2 0.00 0.00 0.00 74 1006.1
20260509011023 11 187 3.2 4.8 0.00 0.00 0.00 74 1006.1
20260509010521 12 223 1.6 3.2 0.00 0.00 0.00 73 1005.8
20260509010017 12 220 1.6 3.2 0.00 0.00 0.00 72 1006.1
20260509005515 12 164 1.6 4.8 0.00 0.00 0.00 72 1005.8
20260509005015 12 199 3.2 4.8 0.00 0.00 0.00 71 1005.8
20260509004512 12 227 4.8 6.4 0.00 0.00 0.00 70 1005.8
20260509004009 12 238 0.0 9.7 0.00 0.00 0.00 70 1005.8
20260509003508 12 266 0.0 11.3 0.00 0.00 0.00 69 1005.8
20260509003004 12 293 0.0 3.2 0.00 0.00 0.00 68 1005.4
20260509002502 13 220 3.2 6.4 0.00 0.00 0.00 65 1005.8
20260509001959 13 217 3.2 3.2 0.00 0.00 0.00 64 1005.8
20260509001455 13 206 1.6 3.2 0.00 0.00 0.00 63 1005.4
20260509000952 13 237 1.6 3.2 0.00 0.00 0.00 61 1005.8
20260509000451 14 191 3.2 6.4 0.00 0.00 0.00 59 1005.8
20260508235946 14 261 1.6 3.2 0.00 0.00 0.00 58 1005.8
20260508235444 14 212 6.4 11.3 0.00 0.00 0.00 56 1005.4
20260508234940 15 259 6.4 16.1 0.00 0.00 0.00 55 1005.8
20260508234437 15 233 9.7 17.7 0.00 0.00 0.00 54 1005.8
20260508233935 15 240 3.2 9.7 0.00 0.00 0.00 52 1005.8
20260508233434 15 247 3.2 4.8 0.00 0.00 0.00 51 1005.4
20260508232930 15 223 3.2 6.4 0.00 0.00 0.00 50 1005.8
20260508232427 15 232 3.2 4.8 0.00 0.00 0.00 51 1005.8
20260508231925 15 250 4.8 9.7 0.00 0.00 0.00 52 1005.8
20260508231422 15 239 3.2 3.2 0.00 0.00 0.00 51 1005.8
20260508230919 15 217 3.2 6.4 0.00 0.00 0.00 51 1005.4
20260508230415 15 195 6.4 12.9 0.00 0.00 0.00 49 1005.8
20260508225912 16 248 3.2 9.7 0.00 0.00 0.00 47 1005.4
20260508225409 16 222 4.8 9.7 0.00 0.00 0.00 44 1005.8
20260508224907 16 234 4.8 6.4 0.00 0.00 0.00 45 1005.8
20260508224404 16 224 4.8 6.4 0.00 0.00 0.00 44 1005.8
20260508223901 16 172 3.2 6.4 0.00 0.00 0.00 42 1005.8
20260508223359 16 236 6.4 9.7 0.00 0.00 0.00 40 1005.8
20260508222856 16 108 4.8 9.7 0.00 0.00 0.00 40 1005.8
20260508222353 16 189 3.2 4.8 0.00 0.00 0.00 44 1005.8
20260508221849 16 197 4.8 6.4 0.00 0.00 0.00 44 1005.8
20260508221345 16 255 1.6 9.7 0.00 0.00 0.00 42 1005.8
20260508220842 16 227 4.8 6.4 0.00 0.00 0.00 44 1005.8
20260508220338 16 239 3.2 3.2 0.00 0.00 0.00 44 1005.8
20260508215835 16 196 6.4 12.9 0.00 0.00 0.00 42 1006.1
20260508215332 16 256 3.2 6.4 0.00 0.00 0.00 41 1006.1
20260508214829 16 183 0.0 9.7 0.00 0.00 0.00 41 1006.1
20260508214326 16 229 4.8 6.4 0.00 0.00 0.00 33 1006.1
20260508213822 16 253 3.2 9.7 0.00 0.00 0.00 32 1006.1
20260508213319 16 278 3.2 9.7 0.00 0.00 0.00 32 1006.1
20260508212815 16 201 6.4 12.9 0.00 0.00 0.00 32 1006.1
20260508212312 16 228 9.7 11.3 0.00 0.00 0.00 31 1006.1
20260508211808 16 230 4.8 6.4 0.00 0.00 0.00 33 1006.1
20260508211303 16 284 3.2 11.3 0.00 0.00 0.00 32 1006.1
20260508210801 16 236 9.7 12.9 0.00 0.00 0.00 32 1006.1
20260508210258 16 245 3.2 12.9 0.00 0.00 0.00 32 1006.1
20260508205755 16 212 3.2 4.8 0.00 0.00 0.00 39 1006.4
20260508205251 16 180 3.2 12.9 0.00 0.00 0.00 31 1006.1
20260508204747 16 203 9.7 14.5 0.00 0.00 0.00 30 1006.4
20260508204244 16 286 0.0 6.4 0.00 0.00 0.00 29 1006.4
20260508203740 16 197 9.7 12.9 0.00 0.00 0.00 30 1006.4
20260508203236 16 88 3.2 11.3 0.00 0.00 0.00 29 1006.4
20260508202732 16 218 3.2 11.3 0.00 0.00 0.00 29 1006.4
20260508202230 16 255 8.0 12.9 0.00 0.00 0.00 31 1006.4
20260508201727 16 269 0.0 6.4 0.00 0.00 0.00 32 1006.8
20260508201223 16 210 3.2 12.9 0.00 0.00 0.00 30 1006.8
20260508200720 16 219 3.2 6.4 0.00 0.00 0.00 34 1007.1
20260508200216 15 166 4.8 6.4 0.00 0.00 0.00 31 1007.1
20260508195713 16 302 1.6 6.4 0.00 0.00 0.00 26 1007.1
20260508195209 16 265 3.2 9.7 0.00 0.00 0.00 28 1007.5
20260508194706 16 242 8.0 16.1 0.00 0.00 0.00 28 1007.1
20260508194203 16 295 4.8 9.7 0.00 0.00 0.00 32 1007.5
20260508193700 15 204 3.2 6.4 0.00 0.00 0.00 31 1007.5
20260508193157 15 138 3.2 4.8 0.00 0.00 0.00 32 1007.5
20260508192653 15 264 1.6 1.6 0.00 0.00 0.00 31 1007.5
20260508192151 15 305 3.2 6.4 0.00 0.00 0.00 33 1007.5
20260508191648 16 277 3.2 6.4 0.00 0.00 0.00 31 1007.5
20260508191144 16 252 0.0 4.8 0.00 0.00 0.00 30 1007.5
20260508190641 15 301 0.0 3.2 0.00 0.00 0.00 34 1007.8
20260508190138 15 256 3.2 12.9 0.00 0.00 0.00 32 1007.8
20260508185635 15 219 6.4 14.5 0.00 0.00 0.00 33 1007.8
20260508185132 15 258 8.0 9.7 0.00 0.00 0.00 32 1008.1
20260508184629 15 199 3.2 9.7 0.00 0.00 0.00 30 1008.1
20260508184126 15 241 0.0 3.2 0.00 0.00 0.00 34 1007.8
20260508183623 15 268 6.4 12.9 0.00 0.00 0.00 29 1008.1
20260508183119 15 281 0.0 3.2 0.00 0.00 0.00 31 1008.1
20260508182615 15 223 4.8 6.4 0.00 0.00 0.00 29 1007.8
20260508182112 15 252 3.2 4.8 0.00 0.00 0.00 34 1008.1
20260508181612 15 184 3.2 9.7 0.00 0.00 0.00 31 1008.1
20260508181111 15 261 3.2 4.8 0.00 0.00 0.00 36 1008.1
20260508180607 15 297 0.0 1.6 0.00 0.00 0.00 35 1008.5
20260508180103 15 313 0.0 3.2 0.00 0.00 0.00 30 1008.5
20260508175600 15 3 1.6 3.2 0.00 0.00 0.00 32 1008.5
20260508175057 14 297 3.2 6.4 0.00 0.00 0.00 37 1008.5
20260508174555 14 299 0.0 1.6 0.00 0.00 0.00 26 1008.8
20260508174051 14 279 3.2 4.8 0.00 0.00 0.00 32 1008.8
20260508173549 14 270 0.0 4.8 0.00 0.00 0.00 31 1008.8
20260508173044 13 255 3.2 9.7 0.00 0.00 0.00 31 1008.8
20260508172542 13 196 6.4 9.7 0.00 0.00 0.00 29 1009.2
20260508172038 14 214 8.0 14.5 0.00 0.00 0.00 27 1009.5
20260508171535 13 266 8.0 14.5 0.00 0.00 0.00 30 1009.2
20260508171031 15 286 8.0 12.9 0.00 0.00 0.00 27 1009.2
20260508170529 14 303 1.6 9.7 0.00 0.00 0.00 30 1009.2
20260508170026 14 295 9.7 16.1 0.00 0.00 0.00 29 1009.5
20260508165523 13 277 6.4 9.7 0.00 0.00 0.00 29 1009.5
20260508165020 13 260 3.2 4.8 0.00 0.00 0.00 31 1009.5
20260508164516 14 232 3.2 6.4 0.00 0.00 0.00 28 1009.5
20260508164013 14 300 1.6 11.3 0.00 0.00 0.00 30 1009.5
20260508163511 13 292 1.6 6.4 0.00 0.00 0.00 31 1009.5
20260508163007 13 197 3.2 9.7 0.00 0.00 0.00 32 1009.8
20260508162504 13 291 1.6 16.1 0.00 0.00 0.00 35 1009.5
20260508162001 13 24 4.8 12.9 0.00 0.00 0.00 23 1009.8
20260508161458 13 257 3.2 9.7 0.00 0.00 0.00 25 1009.5
20260508160955 13 232 3.2 4.8 0.00 0.00 0.00 25 1009.8
20260508160454 13 337 1.6 6.4 0.00 0.00 0.00 29 1009.5
20260508155949 14 244 3.2 9.7 0.00 0.00 0.00 32 1009.8
20260508155447 13 251 1.6 6.4 0.00 0.00 0.00 31 1009.8
20260508154944 13 263 1.6 4.8 0.00 0.00 0.00 27 1009.8
20260508154442 13 298 3.2 4.8 0.00 0.00 0.00 31 1009.8
20260508153938 13 213 6.4 6.4 0.00 0.00 0.00 33 1009.8
20260508153435 13 297 3.2 11.3 0.00 0.00 0.00 31 1009.8
20260508152931 13 234 1.6 4.8 0.00 0.00 0.00 30 1009.8
20260508152428 13 274 3.2 11.3 0.00 0.00 0.00 33 1009.8
20260508151924 13 356 4.8 4.8 0.00 0.00 0.00 30 1009.8
20260508151421 13 307 3.2 6.4 0.00 0.00 0.00 32 1010.2
20260508150917 12 287 0.0 3.2 0.00 0.00 0.00 33 1010.2
20260508150414 13 328 1.6 3.2 0.00 0.00 0.00 37 1010.2
20260508145910 12 298 1.6 14.5 0.00 0.00 0.00 38 1010.2
20260508145407 12 306 3.2 4.8 0.00 0.00 0.00 37 1010.2
20260508144904 12 285 3.2 9.7 0.00 0.00 0.00 37 1010.2
20260508144401 12 309 3.2 6.4 0.00 0.00 0.00 38 1010.2
20260508143859 12 319 1.6 4.8 0.00 0.00 0.00 39 1010.2
20260508143356 11 274 4.8 9.7 0.00 0.00 0.00 39 1010.2
20260508142852 12 319 9.7 14.5 0.00 0.00 0.00 39 1010.2
20260508142349 12 307 0.0 3.2 0.00 0.00 0.00 39 1010.2
20260508141845 12 284 1.6 6.4 0.00 0.00 0.00 40 1010.6
20260508141343 12 233 4.8 6.4 0.00 0.00 0.00 40 1010.6
20260508140840 11 279 0.0 1.6 0.00 0.00 0.00 43 1010.6
20260508140337 12 281 6.4 9.7 0.00 0.00 0.00 42 1010.6
20260508135833 12 332 0.0 1.6 0.00 0.00 0.00 45 1010.6
20260508135329 11 257 1.6 3.2 0.00 0.00 0.00 46 1010.6
20260508134825 11 316 0.0 12.9 0.00 0.00 0.00 51 1010.6
20260508134322 11 287 1.6 11.3 0.00 0.00 0.00 46 1010.6
20260508133819 11 242 1.6 6.4 0.00 0.00 0.00 47 1010.6
20260508133317 10 299 0.0 1.6 0.00 0.00 0.00 51 1010.6
20260508132814 10 262 3.2 4.8 0.00 0.00 0.00 51 1010.6
20260508132312 10 300 1.6 4.8 0.00 0.00 0.00 51 1010.6
20260508131808 10 283 3.2 4.8 0.00 0.00 0.00 50 1010.6
20260508131303 10 300 3.2 4.8 0.00 0.00 0.00 52 1010.6
20260508130755 10 277 0.0 3.2 0.00 0.00 0.00 54 1010.6
20260508130252 10 295 3.2 9.7 0.00 0.00 0.00 54 1010.6
20260508125748 10 230 4.8 4.8 0.00 0.00 0.00 54 1010.6
20260508125244 10 266 1.6 3.2 0.00 0.00 0.00 57 1010.6
20260508124743 10 243 1.6 3.2 0.00 0.00 0.00 58 1010.2
20260508124239 8 283 0.0 1.6 0.00 0.00 0.00 64 1010.2
20260508123738 8 291 0.0 1.6 0.00 0.00 0.00 67 1010.2
20260508123235 8 295 1.6 1.6 0.00 0.00 0.00 67 1010.2
20260508122731 8 294 0.0 1.6 0.00 0.00 0.00 68 1010.2
20260508122228 8 279 0.0 0.0 0.00 0.00 0.00 70 1010.2
20260508121726 8 282 0.0 0.0 0.00 0.00 0.00 73 1010.2
20260508121224 7 291 0.0 0.0 0.00 0.00 0.00 74 1010.2
20260508120721 6 287 0.0 0.0 0.00 0.00 0.00 77 1010.2
20260508120219 6 287 0.0 0.0 0.00 0.00 0.00 77 1009.8
20260508115716 6 269 0.0 1.6 0.00 0.00 0.00 79 1010.2
20260508115214 6 286 0.0 0.0 0.00 0.00 0.00 82 1009.8
20260508114710 5 288 0.0 0.0 0.00 0.00 0.00 82 1009.8
20260508114207 5 290 0.0 0.0 0.00 0.00 0.00 82 1009.8
20260508113704 5 276 0.0 0.0 0.00 0.00 0.00 83 1009.8
20260508113202 4 291 0.0 0.0 0.00 0.00 0.00 85 1009.8
20260508112658 3 291 0.0 0.0 0.00 0.00 0.00 84 1009.8
20260508112155 3 299 0.0 0.0 0.00 0.00 0.00 85 1009.8
20260508111652 3 299 0.0 0.0 0.00 0.00 0.00 85 1009.8
20260508111149 3 299 0.0 0.0 0.00 0.00 0.00 85 1009.8
20260508110646 3 300 0.0 0.0 0.00 0.00 0.00 85 1009.8
20260508110143 2 301 0.0 0.0 0.00 0.00 0.00 85 1009.8
20260508105637 2 301 0.0 0.0 0.00 0.00 0.00 86 1009.8
20260508105134 2 302 0.0 0.0 0.00 0.00 0.00 86 1009.8
20260508104627 2 302 0.0 0.0 0.00 0.00 0.00 86 1009.8
20260508104123 1 302 0.0 0.0 0.00 0.00 0.00 85 1009.8
20260508103621 1 302 0.0 0.0 0.00 0.00 0.00 85 1009.8
20260508103118 1 302 0.0 0.0 0.00 0.00 0.00 85 1009.5
20260508102615 1 302 0.0 0.0 0.00 0.00 0.00 85 1009.8
20260508102113 1 302 0.0 0.0 0.00 0.00 0.00 85 1009.8
20260508101610 1 302 0.0 0.0 0.00 0.00 0.00 85 1009.8
20260508101107 2 302 0.0 0.0 0.00 0.00 0.00 85 1009.8
20260508100605 2 302 0.0 0.0 0.00 0.00 0.00 85 1009.8
20260508095558 2 302 0.0 0.0 0.00 0.00 0.00 85 1009.8
20260508095055 2 303 0.0 0.0 0.00 0.00 0.00 85 1010.2
20260508094553 2 303 0.0 0.0 0.00 0.00 0.00 84 1009.8
20260508094049 2 291 0.0 0.0 0.00 0.00 0.00 84 1009.8
20260508093547 2 268 0.0 0.0 0.00 0.00 0.00 84 1009.8
20260508093044 2 287 0.0 0.0 0.00 0.00 0.00 84 1009.8
20260508092541 2 282 0.0 0.0 0.00 0.00 0.00 84 1009.8
20260508092040 2 307 0.0 0.0 0.00 0.00 0.00 84 1009.8
20260508091537 3 308 0.0 0.0 0.00 0.00 0.00 84 1009.8
20260508091033 3 308 0.0 0.0 0.00 0.00 0.00 84 1010.2
20260508090532 3 11 1.6 1.6 0.00 0.00 0.00 83 1010.2
20260508090028 3 287 0.0 1.6 0.00 0.00 0.00 83 1009.8
20260508085525 3 341 1.6 3.2 0.00 0.00 0.00 83 1010.2
20260508085022 3 293 0.0 0.0 0.00 0.00 0.00 83 1010.2
20260508084519 4 320 0.0 1.6 0.00 0.00 0.00 83 1010.2
20260508084016 4 271 0.0 1.6 0.00 0.00 0.00 83 1009.8
20260508083513 4 271 0.0 0.0 0.00 0.00 0.00 83 1009.8
20260508083009 4 251 0.0 0.0 0.00 0.00 0.00 83 1009.8
20260508082505 4 250 0.0 3.2 0.00 0.00 0.00 83 1009.8
20260508082003 4 307 0.0 1.6 0.00 0.00 0.00 83 1010.6
20260508081500 3 304 0.0 0.0 0.00 0.00 0.00 82 1010.2
20260508080956 3 295 0.0 0.0 0.00 0.00 0.00 82 1010.2
20260508080454 3 296 0.0 0.0 0.00 0.00 0.00 82 1009.8
20260508075950 4 277 0.0 0.0 0.00 0.00 0.00 82 1009.8
20260508075442 4 305 0.0 0.0 0.00 0.00 0.00 81 1009.8
20260508074940 4 313 0.0 1.6 0.00 0.00 0.00 81 1009.8
20260508074437 4 356 0.0 1.6 0.00 0.00 0.00 80 1009.5
20260508073934 5 16 1.6 1.6 0.00 0.00 0.00 81 1009.8
20260508073431 4 254 0.0 0.0 0.00 0.00 0.00 80 1009.8
20260508072928 4 223 3.2 4.8 0.00 0.00 0.00 79 1009.8
20260508072424 4 355 0.0 1.6 0.00 0.00 0.00 78 1009.8
20260508071922 4 319 0.0 0.0 0.00 0.00 0.00 80 1010.2
20260508071419 4 324 0.0 1.6 0.00 0.00 0.00 80 1010.2
20260508070916 4 318 0.0 0.0 0.00 0.00 0.00 80 1010.2
20260508070414 4 309 0.0 0.0 0.00 0.00 0.00 80 1010.6
20260508065912 4 302 0.0 0.0 0.00 0.00 0.00 80 1010.6
20260508065410 4 324 0.0 1.6 0.00 0.00 0.00 79 1010.2
20260508064908 4 320 0.0 0.0 0.00 0.00 0.00 79 1010.2
20260508064404 4 322 0.0 0.0 0.00 0.00 0.00 79 1010.2
20260508063902 4 275 0.0 0.0 0.00 0.00 0.00 79 1010.2
20260508063400 4 294 0.0 0.0 0.00 0.00 0.00 79 1010.6
20260508062857 4 293 0.0 0.0 0.00 0.00 0.00 78 1010.6
20260508062354 4 293 0.0 0.0 0.00 0.00 0.00 78 1010.6
20260508061851 3 292 0.0 0.0 0.00 0.00 0.00 77 1010.2
20260508061343 3 298 0.0 0.0 0.00 0.00 0.00 78 1010.6
20260508060839 4 330 0.0 1.6 0.00 0.00 0.00 78 1010.2
20260508060337 5 346 0.0 1.6 0.00 0.00 0.00 77 1010.2
20260508055832 4 52 1.6 3.2 0.00 0.00 0.00 78 1010.2
20260508055330 3 354 3.2 4.8 0.00 0.00 0.00 79 1010.6
20260508054826 3 307 0.0 0.0 0.00 0.00 0.00 79 1010.6
20260508054324 3 303 0.0 0.0 0.00 0.00 0.00 79 1010.6
20260508053821 3 303 0.0 0.0 0.00 0.00 0.00 79 1010.6
20260508053318 3 326 0.0 0.0 0.00 0.00 0.00 78 1010.6
20260508052815 4 270 0.0 1.6 0.00 0.00 0.00 77 1011.0
20260508052312 3 303 0.0 0.0 0.00 0.00 0.00 78 1011.0
20260508051808 3 280 0.0 0.0 0.00 0.00 0.00 76 1011.0
20260508051304 3 280 0.0 0.0 0.00 0.00 0.00 75 1011.0
20260508050801 4 280 0.0 0.0 0.00 0.00 0.00 75 1011.0
20260508050258 4 279 0.0 0.0 0.00 0.00 0.00 75 1011.0
20260508045754 5 280 0.0 1.6 0.00 0.00 0.00 74 1010.6
20260508045251 5 322 0.0 0.0 0.00 0.00 0.00 74 1011.0
20260508044749 5 294 0.0 0.0 0.00 0.00 0.00 74 1010.6
20260508044246 5 309 0.0 4.8 0.00 0.00 0.00 74 1010.6
20260508043741 5 282 0.0 0.0 0.00 0.00 0.00 74 1010.2
20260508043239 5 282 0.0 0.0 0.00 0.00 0.00 74 1010.6
20260508042735 5 279 0.0 0.0 0.00 0.00 0.00 74 1010.6
20260508042233 5 279 0.0 1.6 0.00 0.00 0.00 73 1010.6
20260508041729 5 306 0.0 0.0 0.00 0.00 0.00 72 1010.6
20260508041226 5 282 0.0 1.6 0.00 0.00 0.00 72 1010.2
20260508040722 6 289 0.0 0.0 0.00 0.00 0.00 73 1010.6
20260508040219 5 281 0.0 0.0 0.00 0.00 0.00 71 1010.2
20260508035717 6 337 0.0 1.6 0.00 0.00 0.00 70 1010.2
20260508035209 6 268 0.0 1.6 0.00 0.00 0.00 69 1010.2
20260508034705 6 343 0.0 1.6 0.00 0.00 0.00 70 1010.6
20260508034203 6 9 1.6 3.2 0.00 0.00 0.00 70 1010.6
20260508033659 6 272 0.0 1.6 0.00 0.00 0.00 70 1010.6
20260508033158 6 336 0.0 4.8 0.00 0.00 0.00 69 1010.6
20260508032655 6 321 0.0 1.6 0.00 0.00 0.00 71 1011.0
20260508032152 6 295 0.0 0.0 0.00 0.00 0.00 69 1010.2
20260508031649 6 295 0.0 0.0 0.00 0.00 0.00 70 1010.6
20260508031145 6 295 0.0 0.0 0.00 0.00 0.00 70 1010.6
20260508030641 5 295 0.0 0.0 0.00 0.00 0.00 71 1010.2
20260508030139 6 295 0.0 0.0 0.00 0.00 0.00 71 1010.2
20260508025635 6 295 0.0 0.0 0.00 0.00 0.00 69 1010.6
20260508025133 6 295 0.0 0.0 0.00 0.00 0.00 67 1010.6